Regional Weather Roundup
Issued by NWS Little Rock, AR

Home | Current Version | Previous Version | Graphics & Text | Print | Product List | Glossary On
Versions: 1 2 3 4 5 6 7 8 9 10 11 12 13 14 15 16 17 18 19 20 21 22 23 24 25 26 27 28 29 30 31 32 33 34 35 36 37 38 39 40 41 42 43 44 45 46 47 48 49 50
000
ASUS44 KLZK 290305
RWRLZK

WEATHER ROUNDUP FOR ARKANSAS
NATIONAL WEATHER SERVICE LITTLE ROCK AR
1000 PM CDT SAT MAR 28 2015

NOTE: "FAIR" INDICATES FEW OR NO CLOUDS BELOW 12,000 FEET WITH NO
SIGNIFICANT WEATHER AND/OR OBSTRUCTIONS TO VISIBILITY.

ARZ001-003-010-029-290400-
NORTHWEST ARKANSAS

CITY           SKY/WX    TMP DP  RH WIND       PRES   REMARKS
FAYETTEVILLE   CLEAR     46  38  73 SE8       30.15R
FORT SMITH     CLEAR     48  37  65 E16       30.18R
HARRISON       CLEAR     37  31  78 SE15      30.19S
BENTONVILLE    CLEAR     48  36  61 SE13G20   30.14R
ROGERS         CLEAR     45  37  73 E10       30.15R
SILOAM SPGS    CLEAR     48  36  61 SE8       30.14R
HIGHFILL       CLEAR     49  38  65 SE14      30.13R
$$

ARZ004-005-016-290400-
NORTH CENTRAL ARKANSAS

CITY           SKY/WX    TMP DP  RH WIND       PRES   REMARKS
BATESVILLE     PTCLDY    37  32  81 SE3       30.30S
FLIPPIN        CLEAR     36  28  75 SE7       30.25S
MTN HOME       PTCLDY    35  30  82 SE8       30.24R WCI  29
$$

ARZ040-041-290400-
WEST CENTRAL ARKANSAS

CITY           SKY/WX    TMP DP  RH WIND       PRES   REMARKS
MENA           CLEAR     50  41  71 E8        30.18R
MOUNT IDA      CLEAR     47  35  63 SE7       30.19R
$$

ARZ009-017-025-026-028-290400-
NORTHEAST ARKANSAS

CITY           SKY/WX    TMP DP  RH WIND       PRES   REMARKS
CORNING          N/A     37  32  81 S5        30.32S
JONESBORO      CLEAR     32  31  96 CALM      30.32R
NEWPORT        CLOUDY    40  34  79 SE5       30.33S
BLYTHEVILLE    CLEAR     36  31  82 NW3       30.33R
$$

ARZ022-023-033-042-044-290400-
CENTRAL ARKANSAS

CITY           SKY/WX    TMP DP  RH WIND       PRES   REMARKS
LITTLE ROCK    CLEAR     42  33  70 E12       30.29R
N LITTLE ROCK  CLEAR     40  36  87 E12       30.29R
JACKSONVILLE   CLEAR     39  34  82 E7        30.28R
SEARCY         CLEAR     37  33  85 E5        30.32S
HOT SPRINGS    CLEAR     45  33  63 E12       30.24R
RUSSELLVILLE   CLEAR     42  32  67 E8        30.26R
CLINTON        FAIR      37  32  81 NE3       30.31R
$$

ARZ036-290400-
EAST ARKANSAS

CITY           SKY/WX    TMP DP  RH WIND       PRES   REMARKS
WEST MEMPHIS   CLOUDY    41  31  67 CALM      30.32S
$$

ARZ050-053-066-070-073-290400-
SOUTHWEST ARKANSAS

CITY           SKY/WX    TMP DP  RH WIND       PRES   REMARKS
ARKADELPHIA    FAIR      47  36  65 E6        30.25R
CAMDEN         CLEAR     46  32  57 MISG      30.24R
TEXARKANA      CLEAR     55  42  61 E12G24    30.16R
EL DORADO      CLEAR     49  35  58 E10       30.21R
DE QUEEN       CLEAR     52  40  63 E12G23    30.16R
$$

ARZ056-057-069-290400-
SOUTHEAST ARKANSAS

CITY           SKY/WX    TMP DP  RH WIND       PRES   REMARKS
PINE BLUFF     CLEAR     42  33  70 E10       30.28R
STUTTGART      CLEAR     41  32  70 E9        30.30S
MONTICELLO     CLEAR     43  33  68 E10       30.26R

$$





USA.gov is the U.S. government's official web portal to all federal, state and local government web resources and services.